Regional Weather Roundup
Issued by NWS

Home | Current Version | Previous Version | Graphics & Text | Print | Product List | Glossary Off
Versions: 1 2 3 4 5 6 7 8 9 10 11 12 13 14 15 16 17 18 19 20 21 22 23 24 25 26 27 28 29 30 31 32 33 34 35 36 37 38 39 40 41 42 43 44 45 46 47 48 49 50

000
ASUS43 KMKX 210011
RWRWI

WISCONSIN REGIONAL WEATHER ROUNDUP
NATIONAL WEATHER SERVICE MILWAUKEE/SULLIVAN WI
600 PM CST MON FEB 20 2017

NOTE: "FAIR" INDICATES FEW OR NO CLOUDS BELOW 12,000 FEET WITH NO
SIGNIFICANT WEATHER AND/OR OBSTRUCTIONS TO VISIBILITY.

WIZ001-002-006>008-014>016-023>028-210100-
NORTHWEST WISCONSIN

CITY           SKY/WX    TMP DP  RH WIND       PRES   REMARKS
SUPERIOR ARPT  LGT RAIN  36  36 100 CALM      29.66F
6HR MIN TEMP:  35; 6HR MAX TEMP:  37; 6HR PCP:  0.52;

ASHLAND        LGT RAIN  50  47  89 S13       29.66S
6HR MIN TEMP:  48; 6HR MAX TEMP:  52; 6HR PCP:  0.30;

HAYWARD        LGT RAIN  48  45  89 S9        29.68R FOG
6HR MIN TEMP:  47; 6HR MAX TEMP:  49; 6HR PCP:  0.70;

SIREN          LGT RAIN  49  48  95 S8        29.66F
6HR MIN TEMP:  46; 6HR MAX TEMP:  49; 6HR PCP:  0.52;

CUMBERLAND     LGT RAIN  46  46 100 S12       29.69F
RICE LAKE      RAIN      49  48  97 CALM      29.72R
6HR MIN TEMP:  45; 6HR MAX TEMP:  49; 6HR PCP:  0.61;

CHETEK         HVY RAIN  50  50  99 S8        29.72R
6HR MIN TEMP:  44; 6HR MAX TEMP:  50; 6HR PCP:  0.78;

LADYSMITH      RAIN      49  48  96 S9        29.73S
6HR MIN TEMP:  47; 6HR MAX TEMP:  49; 6HR PCP:  0.64;

EAU CLAIRE     RAIN      51  51 100 SW9       29.73R FOG
6HR MIN TEMP:  47; 6HR MAX TEMP:  52; 6HR PCP:  0.78;

MENOMONIE      DRIZZLE   52  52 100 S12       29.72S
6HR MIN TEMP:  46; 6HR MAX TEMP:  52; 6HR PCP:  0.93;

NEW RICHMOND   RAIN      50  50  99 SE10      29.66F
6HR MIN TEMP:  46; 6HR MAX TEMP:  50; 6HR PCP:  0.67;

OSCEOLA        LGT RAIN  51  51 100 SE10      29.67F
6HR MIN TEMP:  47; 6HR MAX TEMP:  51; 6HR PCP:  0.47;

$$

WIZ003>005-009-010-017-018-210100-
NORTH CENTRAL WISCONSIN

CITY           SKY/WX    TMP DP  RH WIND       PRES   REMARKS
MANITOWISH WTR RAIN      43  43 100 SE9G17    29.72R
6HR MIN TEMP:  42; 6HR MAX TEMP:  49; 6HR PCP:  0.39;

ARBOR VITAE    RAIN      46  44  94 SE12G17   29.74F
6HR MIN TEMP:  45; 6HR MAX TEMP:  52; 6HR PCP:  0.38;

WOODRUFF       RAIN      46  44  94 SE12G17   29.74F
6HR MIN TEMP:  45; 6HR MAX TEMP:  52; 6HR PCP:  0.38;

RHINELANDER    LGT RAIN  47  46  97 SE10G18   29.77F FOG
6HR MIN TEMP:  46; 6HR MAX TEMP:  51; 6HR PCP:  0.17;

EAGLE RIVER    HVY RAIN  43  43  98 SE9G18    29.77F
6HR MIN TEMP:  43; 6HR MAX TEMP:  52;

LAND O LAKES   RAIN      44  42  93 SE13G20   29.76F
6HR MIN TEMP:  43; 6HR MAX TEMP:  52; 6HR PCP:  0.06;

PHILLIPS       LGT RAIN  46  46 100 S12G22    29.71F
6HR MIN TEMP:  45; 6HR MAX TEMP:  48; 6HR PCP:  0.48;

TOMAHAWK       RAIN      45  44  95 S7        29.77S
6HR MIN TEMP:  44; 6HR MAX TEMP:  51;

MEDFORD        RAIN      45  45  98 SE13      29.75S
6HR MIN TEMP:  44; 6HR MAX TEMP:  47; 6HR PCP:  0.47;

MERRILL        NOT AVBL
$$

WIZ029-030-035-036-043>047-210100-
CENTRAL WISCONSIN

CITY           SKY/WX    TMP DP  RH WIND       PRES   REMARKS
WAUSAU         LGT RAIN  46  45  96 SE17      29.77F FOG
6HR MIN TEMP:  44; 6HR MAX TEMP:  48; 6HR PCP:  0.25;

MOSINEE        NOT AVBL
MARSHFIELD     HVY RAIN  49  47  93 S17       29.76F VSB 3/4
6HR MIN TEMP:  45; 6HR MAX TEMP:  50; 6HR PCP:  0.25;

STEVENS POINT  LGT RAIN  46  46 100 SE9       29.82F
6HR MIN TEMP:  45; 6HR MAX TEMP:  48; 6HR PCP:  0.17;

WAUPACA        RAIN      49  47  92 SE8       29.86F
6HR MIN TEMP:  48; 6HR MAX TEMP:  55; 6HR PCP:  0.04;

WAUTOMA        LGT RAIN  51  50  96 SE8       29.86F FOG
6HR MIN TEMP:  51; 6HR MAX TEMP:  59; 6HR PCP:  0.18;

WISC RAPIDS    LGT RAIN  53  53 100 SE12      29.81S FOG
6HR MIN TEMP:  52; 6HR MAX TEMP:  56; 6HR PCP:  0.19;

CAMP DOUGLAS   LGT RAIN  55  55  97 S9        29.80F FOG
6HR MIN TEMP:  54; 6HR MAX TEMP:  58; 6HR PCP:  0.25;

$$

WIZ011>013-019>022-031-037>040-048>050-210100-
NORTHEAST WISCONSIN

CITY           SKY/WX    TMP DP  RH WIND       PRES   REMARKS
ANTIGO         LGT RAIN  42  42 100 SE22G30   29.82F
6HR MIN TEMP:  41; 6HR MAX TEMP:  46; 6HR PCP:  0.03;

SHAWANO        LGT RAIN  50  45  84 SE9       29.89F
6HR MIN TEMP:  46; 6HR MAX TEMP:  53; 6HR PCP:  0.04;

OCONTO         CLOUDY    47  36  66 SE10      29.91F
6HR MIN TEMP:  45; 6HR MAX TEMP:  49;

STURGEON BAY   CLOUDY    49  35  58 SE16G25   29.95S
6HR MIN TEMP:  45; 6HR MAX TEMP:  50;

GREEN BAY      LGT RAIN  50  42  74 S18       29.92S
6HR MIN TEMP:  50; 6HR MAX TEMP:  52; 6HR PCP:  0.01;

MANITOWOC      CLOUDY    48  37  65 MISG      29.94F
6HR MIN TEMP:  43; 6HR MAX TEMP:  48;

APPLETON       LGT RAIN  48  41  76 SE15      29.88F FOG
CLINTONVILLE   RAIN      46  43  87 SE13      29.87F
OSHKOSH        LGT RAIN  52  44  74 SE14      29.89R
6HR MIN TEMP:  50; 6HR MAX TEMP:  53; 6HR PCP: TRACE;

$$

WIZ032>034-041-042-053>061-210100-
SOUTHWEST WISCONSIN

CITY           SKY/WX    TMP DP  RH WIND       PRES   REMARKS
LA CROSSE      LGT RAIN  56  53  90 S17G26    29.77S FOG
6HR MIN TEMP:  52; 6HR MAX TEMP:  56; 6HR PCP:  0.44;

SPARTA         RAIN      56  55  96 S17G25    29.78S
6HR MIN TEMP:  55; 6HR MAX TEMP:  58; 6HR PCP:  0.26;

VIROQUA        CLOUDY    55  54  99 S13G21    29.80S
6HR MIN TEMP:  52; 6HR MAX TEMP:  55; 6HR PCP:  0.41;

BOSCOBEL       LGT RAIN  59  55  87 S10G22    29.83R FOG
6HR MIN TEMP:  55; 6HR MAX TEMP:  60; 6HR PCP:  0.26;

PRAIRIE DU CHI LGT RAIN  55  54  96 SE6       29.81S
6HR MIN TEMP:  52; 6HR MAX TEMP:  55; 6HR PCP:  0.42;

PLATTEVILLE    CLOUDY    56  56 100 S10       29.85R
6HR MIN TEMP:  55; 6HR MAX TEMP:  59; 6HR PCP:  0.12;

$$

WIZ056-057-062-063-064-067-068-210100-
SOUTH CENTRAL WISCONSIN

CITY           SKY/WX    TMP DP  RH WIND       PRES   REMARKS
REEDSBURG      DRIZZLE   55  55 100 S5        29.82F
6HR MIN TEMP:  55; 6HR MAX TEMP:  59; 6HR PCP:  0.27;

BARABOO/DELLS  DRIZZLE   55  52  92 SE8       29.83F
6HR MIN TEMP:  54; 6HR MAX TEMP:  58; 6HR PCP:  0.23;

LONE ROCK      CLOUDY    57  54  89 SE7       29.84F
6HR MIN TEMP:  56; 6HR MAX TEMP:  62; 6HR PCP:  0.20;

MINERAL POINT  LGT RAIN  55  55 100 S10       29.84S
MADISON        LGT RAIN  57  53  86 SE10      29.86F
6HR MIN TEMP:  57; 6HR MAX TEMP:  62; 6HR PCP:  0.10;

MIDDLETON      CLOUDY    58  55  90 SE7       29.86F
6HR MIN TEMP:  58; 6HR MAX TEMP:  64; 6HR PCP:  0.16;

WATERTOWN      CLOUDY    56  46  70 SE5       29.89R
6HR MIN TEMP:  56; 6HR MAX TEMP:  62;

MONROE         CLOUDY    59  52  77 S13       29.86F
JANESVILLE     LGT RAIN  63  52  67 SE15      29.88S
$$

WIZ051-052-058>065-066-070>072-210100-
SOUTHEAST WISCONSIN

CITY           SKY/WX    TMP DP  RH WIND       PRES   REMARKS
MILWAUKEE      CLOUDY    57  41  55 SE15      29.94F
6HR MIN TEMP:  50; 6HR MAX TEMP:  58;

WAUKESHA       MOCLDY    55  43  62 SE12G25   29.93F
MILWAUKEE/TIMM CLEAR     57  39  51 SE20G25   29.94F
RACINE         CLOUDY    52  39  61 S18G26    29.97F
6HR MIN TEMP:  47; 6HR MAX TEMP:  55;

KENOSHA        CLOUDY    59  44  57 SE18      29.95F
6HR MIN TEMP:  54; 6HR MAX TEMP:  59;

FOND DU LAC    CLOUDY    54  42  64 S16G25    29.90S
6HR MIN TEMP:  52; 6HR MAX TEMP:  56; 6HR PCP: TRACE;

SHEBOYGAN      CLOUDY    49  40  71 SE13G20   29.93F
6HR MIN TEMP:  45; 6HR MAX TEMP:  49;

WEST BEND      CLOUDY    54  43  66 SE10G20   29.92F
JUNEAU         HVY RAIN  53  46  76 SE10      29.92R
6HR MIN TEMP:  53; 6HR MAX TEMP:  60; 6HR PCP:  0.02;

$$

LSZ147-162-210100-
LAKE SUPERIOR

STATION/POSITION TIME  TEMP    WIND        PRES    WAVE
                       AIR SEA DIR/SP/G            HT/PER
                 (UTC) (F)     (DEG/KT/KT) (MB)    (FT/S)
DEVILS ISLAND    0000   46     170/  7/ 10 1004.2F
PORT WING        2340   36      30/  2/  4 1004.7R
SAXON HARBOR     2340   51     180/ 10/ 19 1003.7S
$$

LMZ867-665-643>646-210100-
LAKE MICHIGAN

STATION/POSITION TIME  TEMP    WIND        PRES    WAVE
                       AIR SEA DIR/SP/G            HT/PER
                 (UTC) (F)     (DEG/KT/KT) (MB)    (FT/S)
CHAMBERS ISLAND  2340   48     120/ 10/ 17 1013.2F
NORTHPORT PIER   2340   39     150/ 11/ 15 1014.2F
SISTER BAY



USA.gov is the U.S. government's official web portal to all federal, state and local government web resources and services.